Wind_Speed
23 22 21 20 19 18 17 17 16 15 14 13 11 10 10 9 9 9 8 8 9 9 8 8 8 8 8 8 9 11 12 13 15 16 17 17 17 17 17 18 18 17 17 17 16 15 14 14 14 15 15 16 16 17 17 16 14 13 13 12 13 13 13 13 13 11 10 10 12 13 14 15 17 17 17 19 20 21 21 23 24 23 24 27 26 25 26 27
24 22 21 20 19 18 17 17 16 14 13 12 11 10 10 10 10 10 10 9 8 8 7 7 7 7 8 9 11 12 12 14 15 15 16 16 17 16 16 16 16 15 15 14 13 12 12 12 13 13 14 15 15 15 15 14 13 13 12 12 13 13 12 13 13 12 11 12 13 15 17 18 19 19 19 21 23 24 24 26 25 23 24 28 29 28 28 29
24 23 22 21 19 18 17 17 15 14 13 12 11 10 10 10 10 10 10 9 8 7 7 7 8 8 10 11 11 11 12 13 13 13 14 14 14 14 14 14 13 11 10 9 9 9 10 11 12 13 13 14 13 13 13 12 12 12 12 12 13 13 13 14 14 14 14 14 15 17 18 20 22 22 22 23 24 27 28 28 27 24 25 30 32 31 30 30
25 24 23 22 20 19 18 17 15 14 13 12 11 10 10 10 10 9 9 8 7 7 8 8 9 10 11 11 11 11 12 12 11 11 11 11 11 11 11 10 9 7 6 6 7 8 9 10 11 11 12 12 11 11 11 11 11 12 12 13 14 13 13 14 16 16 17 17 17 18 20 22 23 24 25 25 26 29 30 30 29 28 28 32 35 34 32 32
24 24 23 23 21 20 18 17 15 14 12 12 11 10 10 10 9 8 8 7 7 8 9 10 10 11 11 11 10 10 10 9 9 9 8 7 7 7 7 6 5 5 5 6 7 8 9 9 9 9 9 9 9 10 11 10 11 11 13 14 14 14 15 16 17 18 19 20 20 21 22 24 25 26 27 29 29 30 31 32 32 32 32 33 35 36 35 35
24 24 23 23 21 20 18 17 15 14 13 12 11 10 10 9 9 8 8 8 9 9 10 10 11 11 11 10 8 8 8 7 6 6 4 4 5 5 4 4 4 5 6 6 7 7 7 7 7 7 8 8 9 10 10 10 11 12 13 15 16 16 17 18 19 20 21 22 23 24 25 27 28 29 30 31 32 31 32 34 35 35 35 35 36 38 38 38
24 24 23 22 21 19 17 16 15 14 13 12 11 10 9 9 8 8 8 9 9 9 10 10 10 10 9 7 5 5 5 4 3 2 2 2 3 3 3 3 4 5 5 5 5 5 5 5 5 6 7 8 8 9 10 11 12 13 15 16 17 18 19 20 21 22 23 25 26 27 28 30 31 31 32 34 34 33 34 35 37 38 37 37 37 38 40 41
23 23 22 21 20 19 17 16 15 14 13 12 11 10 10 9 9 9 9 9 9 9 9 9 8 7 5 4 4 4 4 3 3 2 1 2 2 2 2 3 3 3 3 2 3 2 3 3 4 5 7 8 9 10 11 13 14 15 16 18 19 20 21 23 24 25 26 27 28 28 30 32 34 34 34 35 36 36 36 37 39 41 40 39 38 39 40 41
20 21 20 20 19 18 17 16 15 14 13 12 11 11 11 10 10 9 9 8 8 8 7 6 5 5 5 5 5 4 4 4 4 2 2 1 1 1 1 2 2 2 1 0 1 2 2 3 5 6 8 10 11 12 13 15 16 17 19 20 21 22 23 24 26 27 28 29 30 30 32 34 36 37 36 36 38 39 39 40 41 42 42 42 42 42 42 42
17 18 18 18 17 17 17 16 16 15 14 13 13 12 11 10 9 8 8 8 8 7 8 8 8 7 7 6 5 5 5 5 4 3 3 3 3 3 3 3 3 3 3 3 4 5 6 7 8 10 11 12 14 15 16 17 18 19 20 21 22 24 25 25 27 28 29 30 31 32 32 35 38 39 39 38 39 41 41 42 43 43 44 44 45 45 45 44
16 17 17 17 17 17 17 17 17 17 16 15 13 12 11 11 10 10 11 11 11 11 11 10 10 9 8 7 7 6 6 7 6 5 5 5 6 6 6 6 6 6 7 7 8 9 10 10 12 13 14 14 16 16 17 18 19 20 21 22 23 25 26 27 29 30 30 32 34 34 32 33 37 41 42 41 41 43 44 43 44 44 44 44 45 46 47 47
19 19 19 19 19 19 19 19 19 18 17 15 14 14 14 14 14 15 15 14 14 13 13 12 11 10 10 9 8 8 8 8 8 8 8 8 8 9 9 9 9 9 9 9 10 11 12 12 13 14 15 16 17 18 19 19 20 21 22 24 25 28 29 29 31 32 33 34 35 36 32 28 33 38 41 42 42 44 45 44 43 42 43 45 46 46 48 48
24 23 23 23 22 22 21 20 20 19 18 17 18 18 18 18 18 17 17 16 16 15 14 13 12 11 11 10 10 11 11 10 10 10 10 10 10 10 10 10 10 11 10 10 11 12 12 13 13 15 16 17 18 18 20 20 21 23 24 26 26 28 30 31 31 32 33 34 35 37 33 28 30 34 38 41 42 43 43 43 43 43 44 45 46 46 47 47
25 25 25 24 24 23 23 22 22 22 22 22 22 22 21 21 20 19 19 18 18 16 15 14 14 13 13 13 13 13 12 11 11 10 10 10 9 10 11 11 11 11 11 11 12 12 12 13 14 15 16 18 19 20 22 22 23 24 26 27 27 27 30 32 33 32 33 34 35 38 38 34 31 31 34 38 41 43 44 45 45 45 45 46 46 47 47 47
27 27 27 26 26 26 27 27 27 27 27 26 25 24 23 22 21 21 20 20 19 18 17 17 16 16 16 15 14 13 12 11 11 10 10 10 10 10 11 11 11 11 11 12 12 13 13 14 16 17 19 20 21 22 24 24 25 25 26 28 30 29 30 33 35 36 36 37 38 40 41 41 39 36 35 36 38 41 44 46 47 47 46 47 47 48 48 48
29 30 30 31 31 31 31 31 30 29 28 27 26 25 24 23 23 22 22 21 20 20 19 18 17 17 16 15 14 14 12 11 11 10 10 11 11 11 11 11 11 12 13 13 14 14 15 16 18 20 21 21 22 23 24 25 26 27 29 30 32 33 33 33 35 38 39 39 39 41 42 44 45 44 43 41 40 41 43 45 47 48 48 49 49 49 48 47
34 35 35 36 36 35 34 32 31 30 29 29 28 27 27 26 25 24 23 23 22 21 20 19 17 16 16 16 15 14 13 12 12 12 11 11 12 11 12 13 13 13 14 15 16 17 18 19 20 21 22 23 24 25 26 27 28 29 31 32 32 34 35 35 35 37 39 40 41 42 42 44 46 47 48 48 46 45 45 46 47 48 49 50 50 48 47 46
40 40 40 39 37 36 35 33 32 31 31 31 30 29 28 27 26 25 24 23 22 21 20 19 18 16 16 16 15 14 14 13 13 13 12 12 12 13 14 14 15 15 16 18 18 19 20 21 22 24 25 26 27 28 30 31 32 32 33 34 34 35 37 38 38 38 38 39 41 42 42 44 45 46 47 50 50 49 49 48 48 48 47 47 45 45 45 46
43 42 40 39 38 37 36 35 34 33 32 31 30 28 27 26 24 23 22 22 21 20 19 20 18 16 16 16 15 15 15 14 14 14 13 13 13 14 15 16 17 17 18 20 20 21 22 23 24 25 26 27 28 30 32 33 34 34 35 36 37 37 37 39 41 42 41 40 41 43 44 46 47 47 47 50 51 51 50 50 49 47 45 43 41 41 42 43
42 41 40 39 38 37 36 35 34 33 31 30 28 26 25 24 23 23 22 22 21 20 20 20 18 17 16 16 15 15 14 14 14 13 13 13 13 15 16 17 18 19 20 21 21 22 23 25 26 27 28 29 30 31 32 33 34 35 36 36 38 38 39 40 41 42 43 43 44 45 47 49 50 50 50 51 51 50 49 49 48 46 45 44 44 43 43 43
42 41 40 39 38 37 36 34 33 32 30 29 27 25 24 24 23 23 23 22 21 20 19 19 18 17 16 15 14 14 14 13 13 13 13 14 15 16 18 18 19 20 21 22 23 24 25 26 27 29 30 30 31 32 32 34 35 36 37 37 39 39 39 40 42 44 45 45 45 46 48 50 52 52 52 52 52 52 51 50 49 47 46 46 45 44 42 41
41 40 39 38 36 35 34 32 32 31 30 29 28 26 26 25 24 23 22 20 20 19 18 17 16 15 14 14 13 13 12 12 13 14 14 16 17 17 19 20 21 22 23 24 25 26 27 27 28 29 30 31 32 33 34 36 37 38 39 39 41 42 42 41 43 46 47 47 47 48 48 50 53 53 52 52 52 51 50 48 46 45 43 42 41 40 39 38
39 39 37 36 35 34 34 33 32 31 30 30 29 27 26 25 24 22 20 18 18 17 15 15 14 14 14 13 13 12 12 13 15 15 16 17 18 19 20 21 22 23 24 25 25 26 27 27 28 29 31 32 34 34 35 36 38 38 40 42 43 45 46 45 45 47 50 51 51 50 49 49 51 51 49 48 47 45 43 41 41 40 39 38 36 36 36 36
40 39 38 37 36 35 35 33 32 31 30 30 29 27 25 23 21 19 17 16 16 15 14 15 14 14 13 13 13 13 13 14 16 16 17 18 18 20 21 22 23 24 24 25 25 27 28 29 30 32 33 35 36 36 37 38 39 40 42 43 45 46 49 49 49 49 50 51 51 50 49 45 45 48 46 43 41 39 38 37 37 37 36 35 35 35 36 37
40 39 38 37 35 35 33 31 30 29 28 27 26 24 22 20 18 17 15 14 14 14 13 14 14 13 14 13 12 13 14 15 16 16 18 19 19 21 21 22 24 24 25 26 27 29 30 31 32 34 36 38 38 39 39 40 41 43 44 45 46 47 48 49 49 48 48 49 50 50 50 45 41 43 43 40 39 38 38 38 38 38 36 35 36 37 37 38
37 37 36 35 33 31 29 27 26 26 25 23 22 21 19 18 16 15 13 12 14 14 13 14 14 13 14 14 14 15 16 16 17 18 20 20 20 22 22 22 24 25 26 28 29 31 32 33 35 36 38 38 39 40 41 42 43 44 45 45 46 45 46 46 46 46 46 47 48 47 48 46 40 39 41 40 39 40 40 40 40 39 38 38 39 39 39 39
35 34 32 31 28 27 25 24 24 24 23 21 20 19 18 16 14 13 12 11 12 13 13 14 14 14 15 16 17 18 18 18 18 20 21 21 22 23 23 24 25 26 28 29 30 32 33 34 35 36 38 38 40 41 42 43 44 44 44 44 44 44 46 46 45 46 45 45 47 46 46 47 42 40 42 42 41 42 42 42 42 41 40 40 42 43 42 42
32 30 28 27 25 24 23 22 22 21 21 20 19 17 15 13 12 12 10 10 11 12 13 14 15 16 17 17 19 19 19 20 20 20 21 23 24 25 25 26 27 29 30 30 31 32 32 34 35 36 38 40 41 43 44 45 45 44 44 44 45 46 46 46 46 47 46 45 47 47 48 49 46 43 45 45 43 43 43 43 43 42 43 44 45 45 45 45
28 27 25 24 23 21 20 20 20 19 19 19 17 16 14 12 11 11 10 12 14 14 16 17 18 19 19 20 21 20 20 21 22 23 24 25 26 27 28 30 30 31 31 31 32 32 32 34 35 37 39 40 43 45 45 46 45 45 46 46 47 48 47 47 47 49 49 49 49 50 51 52 50 46 46 47 47 46 45 43 42 43 45 47 48 48 47 47
25 24 23 22 20 19 19 19 19 19 18 17 16 15 13 13 12 11 12 14 16 16 19 20 20 20 21 21 21 21 22 23 24 25 26 27 27 27 28 28 29 30 31 31 32 32 33 35 37 39 41 42 44 46 46 47 48 48 49 49 48 49 48 49 50 51 53 52 51 52 52 53 53 49 46 47 47 46 44 41 42 45 47 48 48 49 49 49
22 22 21 20 19 18 18 17 18 18 18 18 17 15 14 15 16 14 14 16 17 19 20 20 20 21 21 21 22 23 23 24 24 24 24 24 23 23 23 23 24 26 27 30 33 34 36 38 40 42 43 45 47 48 48 50 51 51 52 52 52 52 51 52 53 54 55 55 53 53 52 52 53 50 45 45 44 40 39 39 42 44 46 47 49 50 52 53
22 20 20 19 18 17 16 15 16 18 20 21 19 17 16 16 16 17 18 18 19 20 20 20 21 21 21 23 24 24 24 25 24 24 23 23 23 24 24 25 27 28 30 33 36 37 38 40 42 44 46 47 49 49 50 51 52 53 53 54 55 55 55 55 56 56 57 56 54 52 53 53 52 49 44 42 39 34 34 39 44 47 49 52 53 55 57 58
21 20 19 17 17 16 15 15 16 19 23 22 19 20 18 13 14 19 21 20 20 20 19 20 22 22 24 24 24 24 25 25 24 25 25 26 28 29 30 32 33 35 36 38 39 39 40 42 45 47 48 49 51 52 53 53 54 55 55 55 56 56 57 58 58 58 58 58 55 52 53 55 53 48 42 36 32 33 39 47 52 56 57 59 60 61 62 63
19 18 17 17 17 16 16 18 19 21 24 23 21 21 16 12 16 20 20 20 21 21 21 22 23 24 25 24 24 24 25 25 25 27 28 29 30 31 33 34 35 36 37 38 40 41 43 45 46 48 49 51 52 53 54 55 54 54 53 53 54 54 55 56 56 57 58 60 58 54 53 54 52 48 41 33 33 40 50 56 57 58 59 61 63 62 62 61
19 18 18 18 17 18 19 20 22 23 22 23 23 18 13 14 18 20 20 21 22 22 23 24 25 26 25 24 24 25 25 27 28 29 30 31 32 33 35 36 36 37 39 40 42 44 45 46 48 49 49 51 52 52 53 54 53 52 50 50 50 50 52 53 54 56 57 60 61 57 55 53 50 48 44 41 43 50 55 55 55 56 59 62 62 62 61 60
19 19 18 18 19 20 21 22 23 22 21 25 22 14 13 17 20 20 21 22 23 24 25 25 25 24 24 24 25 27 28 30 31 32 33 34 36 37 38 38 39 41 42 43 45 46 47 47 48 49 49 49 50 50 51 52 51 49 47 47 47 49 51 53 56 57 58 61 62 60 59 56 53 54 54 52 53 55 55 56 57 59 61 63 64 63 61 59
20 19 18 19 20 21 21 22 22 20 23 26 20 14 16 19 20 21 23 23 24 24 24 23 23 23 25 26 27 29 31 32 33 35 36 37 39 40 41 41 42 43 44 45 46 47 49 48 47 49 48 46 47 48 48 49 49 47 46 46 48 51 52 56 60 61 61 63 65 63 61 60 63 65 64 60 57 56 56 59 62 62 63 65 66 65 62 60
20 18 18 19 20 20 20 21 20 21 26 24 18 16 18 20 21 23 23 23 23 23 23 23 24 26 28 29 30 32 34 35 36 37 38 39 41 42 43 43 44 45 46 47 47 48 49 49 47 47 47 44 44 46 46 47 48 47 48 49 52 55 56 59 63 63 63 64 66 65 61 63 69 71 70 67 63 62 62 63 66 67 67 67 68 67 64 63
21 19 18 18 19 19 18 20 23 28 27 20 17 18 20 21 22 22 22 22 23 23 24 25 27 29 31 32 34 35 36 38 38 39 40 42 43 44 44 45 46 47 48 48 48 48 49 50 48 46 45 43 43 45 47 49 50 50 52 55 57 59 59 62 65 65 63 63 65 64 63 65 70 72 71 70 70 70 70 69 69 69 69 68 69 68 67 67
21 18 16 17 19 18 18 23 29 28 21 17 18 20 21 22 22 21 21 23 23 24 27 29 31 32 34 35 36 37 38 39 40 41 42 43 44 45 46 47 47 48 48 48 48 47 48 50 50 47 44 43 44 46 49 52 53 54 57 59 61 62 62 65 67 66 65 65 64 63 63 67 70 71 71 72 73 74 73 71 70 71 70 69 69 69 68 70
20 17 16 18 19 18 21 28 27 20 17 19 21 22 21 21 21 21 23 24 26 28 29 32 33 34 35 36 37 38 39 40 41 43 44 45 46 46 47 47 47 47 48 47 47 48 48 49 51 50 47 46 45 47 49 52 54 56 59 61 62 63 65 67 69 68 66 67 67 63 63 69 72 72 72 73 74 73 72 71 71 71 71 71 71 70 70 72
17 15 16 18 18 19 23 25 21 19 21 22 21 21 21 21 21 23 24 26 28 30 31 33 34 34 35 36 37 38 40 41 42 43 44 45 46 46 46 46 46 47 48 48 48 49 49 49 51 52 50 48 47 49 51 52 54 56 58 61 62 64 65 68 71 71 68 68 68 65 66 72 75 74 74 74 73 71 71 72 73 73 73 73 74 73 72 74
15 15 16 18 18 19 23 23 21 22 24 21 20 21 21 22 23 25 26 28 30 31 31 32 34 34 35 37 38 39 41 42 43 43 44 44 44 45 45 45 46 47 48 49 49 50 50 51 52 54 52 48 47 50 52 54 56 58 61 64 66 67 67 68 70 71 71 71 68 67 72 76 76 75 74 72 70 68 69 71 73 74 73 74 75 76 76 76
15 15 17 18 18 20 23 24 24 23 21 19 21 22 22 24 25 26 28 29 29 31 32 32 34 35 36 38 39 40 41 42 42 43 43 44 44 45 45 46 47 48 49 49 49 50 51 51 54 57 57 54 53 55 57 59 60 62 64 66 67 68 69 69 69 70 73 73 70 71 76 77 74 73 72 71 70 67 66 66 69 71 73 75 77 77 77 77
15 16 17 18 20 22 24 23 22 20 19 21 23 23 24 25 26 27 28 28 29 31 32 33 34 36 37 38 39 40 40 41 42 43 44 44 45 46 46 46 47 47 48 48 48 49 50 51 54 57 60 60 60 61 64 65 66 66 66 67 67 68 68 69 71 72 75 75 73 75 77 76 74 73 72 70 68 64 61 61 64 67 71 74 75 74 74 74
17 17 18 20 22 23 23 20 19 19 20 22 23 23 25 25 26 27 28 29 30 31 33 34 35 37 38 38 39 39 40 41 43 44 45 46 46 46 46 47 47 47 47 47 48 49 50 50 52 56 58 59 60 62 66 69 71 71 71 71 71 69 69 71 74 76 77 76 74 74 75 76 75 74 72 71 67 64 62 62 63 65 68 70 72 73 74 74
19 19 20 22 22 21 20 19 19 20 21 23 23 23 25 25 26 27 28 29 31 32 33 35 36 37 37 37 38 39 40 41 43 45 46 46 46 46 46 46 46 46 47 47 48 50 51 51 52 55 58 59 61 65 68 70 73 74 74 75 74 73 73 75 77 79 78 75 74 74 73 73 74 73 73 71 67 63 61 61 62 66 71 75 78 82 84 85
19 20 20 20 19 19 18 19 19 21 22 23 23 24 24 25 27 28 29 30 31 33 34 35 36 37 37 38 39 40 40 41 43 45 46 46 46 46 46 45 45 45 46 47 49 51 53 53 53 56 58 60 63 67 70 72 73 75 76 77 77 78 79 80 82 82 78 74 72 71 70 71 72 72 69 65 61 60 60 63 68 75 82 86 89 93 94 94
19 20 19 18 18 18 18 19 20 21 23 24 24 24 25 26 28 29 30 32 33 33 35 36 37 38 38 39 40 41 42 43 44 46 46 47 47 47 47 45 45 46 47 49 51 53 55 55 56 58 60 62 64 68 71 73 74 76 78 79 80 82 83 84 86 83 77 71 68 68 69 68 65 62 62 62 64 68 72 77 84 88 89 87 87 87 88 87
20 20 18 18 19 20 20 20 21 22 23 24 24 25 27 28 29 31 32 33 34 35 36 37 38 38 39 40 41 42 44 45 46 47 48 48 48 48 47 46 45 47 49 51 53 56 57 58 59 62 65 64 65 68 70 72 75 77 80 82 84 85 86 88 88 81 73 68 67 68 69 64 59 60 65 70 74 80 84 88 90 87 78 73 71 72 73 73
20 18 18 19 20 20 20 21 22 23 24 24 25 27 28 29 30 32 33 34 35 36 37 38 39 39 40 41 42 43 45 46 47 47 49 49 48 47 47 47 47 49 51 53 56 58 60 62 63 66 69 69 69 70 71 73 75 78 82 86 88 89 91 91 86 76 70 71 72 70 67 66 70 75 78 82 86 88 87 83 76 67 59 57 60 62 63 63
20 19 19 20 20 20 20 21 22 23 24 25 26 28 29 30 31 33 34 35 37 37 38 39 40 41 41 42 43 44 45 46 46 47 48 48 47 46 47 48 49 52 54 55 58 61 63 66 68 70 73 74 72 73 75 76 78 81 86 89 92 94 93 89 80 71 68 70 72 71 71 75 81 84 87 90 89 83 74 64 55 52 51 52 54 55 56 56
Wind_Direction
209 211 213 212 214 217 218 220 220 220 219 217 209 200 200 198 192 188 187 197 199 194 195 201 210 215 220 228 238 249 257 263 265 267 270 273 276 278 279 280 283 285 286 287 285 281 274 267 262 261 262 263 264 265 264 262 259 258 259 262 266 270 275 274 270 269 270 272 274 278 279 281 282 285 291 293 293 296 298 295 296 304 303 299 300 299 298 297
209 211 213 214 214 215 215 215 214 213 216 215 207 197 194 190 185 179 173 177 184 187 193 204 216 224 229 235 243 253 258 262 266 270 275 278 282 285 288 289 290 290 289 287 281 274 265 259 258 258 259 260 261 260 258 254 254 258 261 266 270 273 279 278 270 266 265 267 270 273 277 280 282 287 291 291 293 295 294 293 298 307 302 296 296 294 293 295
207 209 211 212 212 211 211 210 208 206 205 206 202 193 188 186 184 181 180 183 190 197 205 216 227 233 234 236 244 252 257 263 270 277 283 285 287 290 292 293 292 289 284 277 268 263 259 257 260 261 262 261 259 256 253 254 257 263 265 269 273 276 282 280 273 268 267 268 270 273 277 281 285 290 291 291 292 292 293 295 300 302 295 290 292 292 292 293
206 207 208 208 207 206 207 206 206 202 196 195 192 184 183 186 188 190 193 197 205 213 221 227 230 233 234 238 246 254 261 268 274 282 287 288 291 293 293 293 288 281 271 262 257 257 256 258 260 260 260 257 256 257 256 260 263 271 275 278 281 282 284 281 277 275 271 270 272 276 280 283 287 290 291 292 290 289 293 296 295 294 289 288 291 292 291 289
206 206 206 206 205 204 204 204 204 197 189 185 182 179 180 185 191 196 203 211 218 224 230 231 230 233 237 244 253 262 267 271 277 284 289 289 292 294 295 294 285 275 268 262 257 254 254 256 256 253 251 251 257 260 261 267 271 278 285 287 289 288 287 285 282 281 278 276 278 281 285 287 288 290 291 290 288 288 291 291 291 291 289 289 290 291 290 289
207 206 206 205 205 203 203 202 198 189 182 180 178 178 180 184 190 198 207 214 219 223 227 229 231 234 240 250 260 265 264 264 272 280 284 287 289 289 288 281 271 263 256 254 251 250 251 247 245 246 249 252 258 261 264 275 282 288 293 293 292 291 290 288 285 284 283 283 285 288 290 289 290 290 289 287 287 287 288 288 289 289 288 288 289 290 290 290
208 207 206 205 203 201 200 197 190 181 176 176 177 177 179 184 191 199 206 212 218 220 222 225 230 236 244 252 248 243 245 245 246 246 261 272 268 260 251 246 244 240 239 243 244 246 245 242 248 252 256 260 264 271 279 287 292 296 299 296 294 293 293 291 290 288 288 289 291 293 292 291 291 289 287 287 287 286 285 286 286 286 286 285 286 288 290 290
207 207 206 204 201 198 195 191 184 177 173 175 176 176 179 185 191 196 200 204 209 211 215 221 226 230 224 211 205 210 211 193 177 169 199 232 235 230 222 224 219 214 223 231 236 247 250 257 275 273 272 279 286 295 299 301 301 301 301 300 299 298 297 296 294 293 293 293 294 295 293 291 290 288 287 287 287 287 286 285 285 286 286 285 286 287 288 289
203 205 205 203 200 196 193 188 183 176 173 174 173 174 178 181 184 186 188 190 195 199 200 200 193 180 173 177 179 176 169 154 144 144 158 174 184 168 152 165 157 133 108 104 305 320 309 303 310 306 305 308 310 312 311 310 310 306 304 303 303 300 299 298 296 296 296 294 294 294 293 292 290 289 289 289 288 288 287 287 286 287 287 288 288 288 288 288
187 191 194 194 191 188 185 181 177 173 170 169 168 168 167 166 165 165 166 167 167 166 163 158 157 156 156 159 152 144 142 135 131 131 127 122 112 104 95 89 76 58 49 33 7 353 343 337 335 330 326 323 322 321 316 314 312 309 305 304 303 301 299 298 296 296 295 294 294 293 296 296 293 292 293 292 290 289 289 289 289 290 291 292 292 291 290 289
162 168 172 173 172 171 169 167 165 163 160 157 155 151 148 146 144 143 143 144 144 145 145 144 142 140 137 135 129 125 128 124 119 112 103 96 88 77 66 58 44 33 29 18 7 357 350 346 341 337 332 326 322 319 315 312 309 307 305 303 303 301 298 297 295 295 295 295 295 296 301 301 297 295 295 295 294 292 292 293 293 294 294 294 292 291 291 290
137 142 146 148 150 150 151 151 149 148 145 143 140 137 136 134 133 133 133 134 135 135 133 132 129 124 120 120 118 117 116 110 103 96 86 77 69 58 51 44 34 27 19 12 6 357 350 346 342 337 331 325 320 315 312 309 306 305 303 303 304 301 298 298 298 298 298 298 297 297 301 305 300 297 296 296 296 296 297 297 296 295 294 293 291 291 291 290
122 124 127 130 132 134 136 136 136 134 133 132 130 128 127 126 126 125 125 126 126 125 123 120 116 112 109 110 112 109 104 97 92 83 74 66 60 51 44 37 29 23 14 9 4 354 346 341 339 335 328 323 317 311 307 305 305 304 303 304 305 304 301 299 299 300 299 300 300 297 299 306 304 299 298 298 299 300 301 300 298 297 295 294 293 292 292 291
117 119 120 122 124 125 125 125 125 125 125 124 123 123 122 121 121 121 121 120 118 116 113 110 107 107 108 108 107 103 96 89 82 74 67 61 55 47 39 31 25 18 11 7 0 350 341 337 336 331 324 321 316 311 309 309 308 307 307 306 304 304 303 301 299 300 301 303 305 301 300 305 305 302 301 301 302 302 302 300 299 299 298 297 296 295 294 292
116 116 117 117 117 117 118 118 119 120 120 120 119 120 119 119 118 117 116 114 112 110 108 107 106 106 107 105 100 93 86 80 76 70 61 54 45 38 33 26 19 11 5 0 354 347 341 336 333 329 326 324 322 318 313 310 309 307 308 308 307 307 308 307 304 304 305 308 309 305 303 305 304 303 303 302 302 301 300 300 300 300 300 299 299 299 297 294
111 110 110 111 112 113 114 115 116 116 117 117 117 117 116 115 114 112 111 109 108 106 105 105 104 104 102 96 88 82 78 72 67 60 52 44 35 28 22 17 10 4 360 353 348 344 339 336 334 332 328 324 320 315 310 309 311 311 311 311 311 310 311 311 309 308 308 309 310 308 306 305 304 305 305 303 301 300 299 299 299 300 300 301 301 300 297 295
104 105 106 107 109 110 112 113 113 114 115 114 113 112 112 110 108 107 106 104 104 102 102 101 99 96 91 84 79 77 72 64 57 48 40 33 27 21 13 8 3 0 356 349 344 340 337 334 330 326 321 317 314 311 310 311 311 310 311 311 311 311 309 309 309 308 308 309 310 310 309 306 304 304 305 306 305 303 302 301 301 301 302 302 302 299 296 294
102 104 106 107 109 110 110 111 111 111 110 109 108 107 105 104 104 104 102 101 100 100 99 96 91 88 84 80 76 71 63 56 48 40 31 23 19 15 9 4 360 356 349 344 341 336 332 327 321 319 318 317 315 313 312 310 308 308 310 310 309 311 312 311 310 309 308 310 310 309 309 308 305 304 305 307 308 307 307 307 306 306 305 303 301 299 297 295
102 103 104 105 106 106 107 106 106 105 103 103 102 101 100 99 100 101 100 98 97 96 93 88 86 86 82 77 71 62 56 49 41 34 24 15 10 6 2 357 353 347 341 338 334 328 323 319 317 317 317 316 315 314 312 311 312 312 313 313 312 313 315 314 312 310 308 309 309 309 309 308 306 305 306 307 309 311 312 311 311 309 307 304 301 299 296 294
99 99 99 99 100 100 101 100 100 100 100 101 100 100 99 98 99 98 96 94 92 90 86 84 83 81 75 71 65 57 49 40 34 25 13 5 359 355 352 347 342 338 334 330 325 320 318 317 317 317 316 316 317 317 317 316 317 316 316 317 316 315 315 315 313 311 308 307 309 311 313 313 310 308 308 309 310 311 311 311 309 307 305 303 300 298 297 296
100 100 100 100 100 101 100 100 101 101 100 100 98 99 97 95 96 94 92 91 89 86 83 81 78 73 68 63 59 50 39 29 22 11 0 355 350 348 345 338 334 331 328 325 322 321 321 321 320 319 320 321 322 322 320 319 318 319 319 318 317 314 314 315 315 313 311 310 310 312 317 318 315 313 312 311 311 311 310 310 309 308 307 307 307 307 307 308
104 104 104 104 103 103 102 102 100 99 98 97 96 96 94 92 90 87 86 87 85 82 79 76 70 65 59 53 48 39 25 16 9 359 350 348 345 342 339 335 332 330 328 327 327 327 325 324 323 324 325 324 324 323 322 322 321 321 320 318 317 314 312 313 316 318 317 315 314 314 318 321 319 318 317 315 314 313 313 314 314 315 317 318 320 320 320 320
103 103 102 102 101 101 99 97 95 94 93 92 92 92 89 87 85 82 81 79 76 74 72 68 60 52 47 40 34 23 10 6 0 352 347 346 344 341 339 338 336 335 334 334 333 330 327 326 326 326 326 324 323 323 324 325 324 321 319 317 317 318 316 315 317 321 323 321 318 316 318 322 321 319 319 319 318 319 320 321 322 323 325 326 328 328 328 326
99 99 99 99 98 96 95 93 93 91 89 87 86 85 83 82 80 78 74 70 67 64 60 57 49 43 38 30 23 13 5 1 354 348 347 346 347 347 345 344 343 341 340 338 335 332 330 329 328 326 325 324 324 324 325 325 323 322 321 321 321 323 323 323 323 324 327 326 324 321 319 322 324 321 321 322 322 325 326 326 326 325 326 327 327 328 328 326
96 96 96 95 93 92 92 92 91 88 85 83 81 79 79 77 74 70 64 58 56 53 49 47 43 36 32 25 17 10 6 1 353 351 353 353 354 353 351 349 347 343 340 338 335 333 332 330 328 327 327 327 327 326 326 324 323 324 326 327 327 328 329 330 330 330 331 329 328 328 324 324 328 325 322 323 323 324 325 324 324 322 323 324 323 322 321 320
93 92 91 90 90 89 90 90 86 82 79 76 74 71 70 67 63 59 51 43 44 45 40 39 35 28 25 19 11 11 12 7 2 2 2 360 356 353 351 348 345 340 339 337 335 334 333 331 331 330 330 330 329 328 327 326 327 329 331 333 333 335 335 336 336 335 335 333 331 331 328 327 330 325 321 322 323 324 324 322 321 319 318 318 317 316 314 314
90 89 89 89 89 88 87 85 81 76 73 69 66 64 62 60 56 53 44 34 37 39 34 34 31 26 25 22 18 18 16 12 9 5 360 355 352 350 348 345 343 341 340 338 336 336 335 334 333 333 332 332 331 331 331 333 335 335 336 337 336 337 337 337 338 336 336 336 331 330 329 328 329 326 322 323 323 324 323 320 317 315 314 314 312 310 309 309
89 89 90 89 88 85 83 81 78 76 73 69 66 62 61 61 59 52 38 29 33 33 32 35 35 34 32 29 26 21 14 9 5 359 354 350 350 348 346 345 344 343 341 339 339 338 338 337 336 337 337 337 337 338 339 340 339 338 338 337 335 336 337 336 335 334 334 335 331 329 330 329 330 330 326 324 324 323 322 318 314 313 312 312 309 307 306 305
89 89 89 87 85 84 84 82 81 79 77 74 68 62 57 57 58 50 34 32 37 36 36 38 38 36 31 27 22 15 8 4 358 354 352 350 349 348 347 347 345 343 343 343 343 342 341 341 342 343 342 342 342 342 342 341 340 338 336 335 334 334 334 333 331 330 331 333 332 329 330 328 331 334 329 325 324 323 322 318 315 313 311 309 307 305 304 303
86 86 84 83 82 82 83 82 81 79 75 71 64 59 52 47 50 45 35 40 45 44 42 38 34 29 23 19 15 7 2 359 356 353 353 350 350 351 350 349 347 345 345 345 346 345 344 345 346 345 344 344 344 342 341 340 339 337 335 334 333 332 331 330 329 328 328 333 332 329 329 327 329 333 330 326 324 322 321 318 315 313 309 307 305 303 301 299
82 82 81 80 79 78 78 79 79 75 68 61 58 56 49 45 49 45 39 45 47 43 39 32 27 23 17 11 7 4 359 357 356 354 353 351 352 354 352 349 351 351 349 347 346 347 347 347 346 345 345 345 344 342 340 338 337 335 334 333 332 331 330 329 329 327 327 331 332 329 328 326 328 332 330 326 324 320 317 315 312 307 305 304 301 298 298 297
81 81 79 79 78 76 74 74 73 70 64 58 56 55 52 47 48 46 43 43 42 38 33 25 20 15 9 6 4 1 357 355 356 356 356 356 357 358 356 354 355 355 353 351 349 348 347 346 345 345 344 344 343 341 338 336 335 334 334 334 333 332 331 330 329 328 327 328 329 328 326 325 328 330 329 327 320 312 309 308 305 301 302 302 300 299 300 300
80 78 76 75 74 73 71 67 65 66 65 62 57 58 56 42 38 43 41 38 34 30 25 18 13 9 6 5 3 360 359 0 2 3 4 3 2 0 359 358 356 355 354 352 350 348 346 345 344 343 343 342 341 339 337 336 336 336 337 336 336 334 332 332 330 328 327 326 327 328 325 325 328 328 330 326 309 301 307 308 306 305 306 306 305 306 306 306
75 73 71 69 69 68 67 65 64 65 68 67 59 55 47 28 32 38 33 30 26 20 16 11 8 8 7 7 6 6 7 8 8 8 6 5 2 360 358 357 355 353 351 349 348 347 345 344 343 342 342 342 341 339 337 336 337 338 339 339 338 335 332 331 329 327 327 325 326 328 325 325 327 325 325 317 300 302 309 309 307 307 307 307 307 308 307 306
68 68 68 68 67 67 67 67 67 66 68 66 56 42 25 20 29 29 23 22 19 14 12 10 8 10 10 11 14 14 13 11 9 7 5 3 1 359 357 356 353 351 349 347 347 345 344 344 343 342 343 342 340 338 336 336 338 340 341 340 337 335 331 329 327 326 326 325 326 327 326 326 324 318 314 310 305 306 306 304 304 304 305 304 304 304 304 304
65 66 68 69 69 69 71 71 69 64 60 58 48 23 10 21 24 21 18 17 15 13 15 14 14 16 17 18 18 15 12 10 8 6 3 1 360 358 355 353 350 349 347 346 346 344 343 344 343 342 343 343 339 337 336 336 339 340 340 339 335 333 331 328 327 327 326 325 326 328 327 325 320 314 311 312 312 308 303 300 302 303 302 302 302 302 302 303
62 65 69 70 70 71 72 70 65 57 52 48 33 8 14 21 18 17 16 15 17 19 21 21 21 22 22 20 17 13 10 8 6 4 1 359 357 355 353 351 349 347 346 346 345 343 340 341 343 341 343 344 339 337 337 336 338 339 339 337 334 333 332 329 328 328 326 325 324 327 327 322 318 316 314 315 316 312 306 304 304 305 304 302 302 302 301 301
61 63 66 68 69 68 67 65 59 50 45 36 14 6 17 17 14 15 16 19 24 26 27 26 25 24 21 17 14 11 8 6 4 2 360 358 356 354 352 350 348 347 346 345 345 343 339 339 342 342 343 344 338 335 335 335 338 339 338 337 335 334 333 331 330 328 325 323 322 324 326 320 317 316 315 316 317 313 310 307 305 306 307 305 303 302 301 301
62 61 63 65 64 59 56 57 51 42 35 20 4 10 14 12 15 19 23 29 32 31 30 27 24 20 17 13 11 8 6 4 2 0 359 357 355 353 351 348 347 345 345 344 342 342 339 338 340 343 344 343 338 335 334 336 338 338 338 337 336 335 333 331 330 328 324 320 318 320 323 320 317 316 316 316 315 312 310 308 306 306 307 306 302 301 301 300
63 59 56 58 56 48 43 46 44 36 23 8 6 11 12 15 23 29 34 36 34 30 26 22 19 16 13 11 8 6 4 2 0 358 357 355 353 351 349 346 345 343 342 341 340 340 339 337 338 341 343 342 340 338 337 337 338 338 338 337 336 335 332 329 328 327 325 321 317 317 318 318 317 317 316 314 311 310 308 307 305 304 305 304 301 298 297 297
64 53 47 50 43 33 37 41 38 26 11 7 9 12 19 28 34 39 39 35 30 26 21 18 16 13 11 9 6 4 2 359 357 356 353 352 350 348 346 344 343 342 340 340 340 339 339 338 336 338 341 342 341 339 337 337 338 338 337 336 335 333 331 328 326 326 324 322 319 316 314 316 316 314 312 310 309 308 307 305 303 302 302 302 299 296 294 294
61 45 38 40 30 22 32 36 27 14 9 8 13 23 34 41 42 39 35 29 25 21 18 15 13 10 8 6 3 1 359 356 355 353 351 349 347 345 344 343 342 341 340 340 340 339 339 337 335 336 339 342 342 339 336 336 337 336 335 334 332 331 330 327 325 325 323 321 321 317 312 313 314 312 309 308 308 307 306 303 301 300 300 299 298 294 292 291
53 37 28 27 18 15 26 26 15 10 10 15 30 41 44 43 38 33 28 24 20 17 15 13 9 7 5 2 0 358 356 354 352 350 349 347 345 343 343 342 341 341 340 340 340 339 339 337 334 333 335 337 336 333 332 334 335 335 335 334 332 330 328 326 324 323 321 321 321 315 311 312 312 309 307 307 307 306 304 302 300 298 298 297 297 294 291 289
43 31 20 14 10 15 21 17 9 11 18 34 46 46 42 37 31 27 23 19 16 13 11 9 5 3 1 358 356 354 352 351 349 348 347 345 345 343 342 342 341 341 340 340 340 340 339 337 335 334 335 337 335 332 332 333 334 334 334 334 331 328 325 324 324 322 320 321 320 312 310 311 309 307 305 304 304 302 300 299 297 297 297 296 296 295 292 289
34 22 12 7 11 16 15 10 12 23 38 48 47 41 36 31 26 23 19 15 13 9 6 4 1 359 356 354 352 351 350 349 347 346 345 344 344 343 342 341 341 341 340 340 340 339 338 338 337 337 339 341 342 339 336 334 333 332 332 332 330 327 325 325 324 322 321 321 318 312 309 309 308 307 305 304 304 303 301 298 296 296 296 294 293 292 290 288
24 13 8 7 11 12 10 15 29 42 48 46 41 34 29 25 21 18 14 10 9 5 2 0 357 354 352 350 349 348 347 346 346 345 344 343 343 342 341 341 341 341 340 340 339 338 337 338 338 337 338 340 341 338 334 333 332 331 331 331 330 328 327 325 324 324 323 320 316 312 310 309 309 309 308 306 305 303 300 296 293 293 293 290 289 289 289 289
13 7 6 5 7 11 19 34 46 49 45 40 34 28 24 20 15 12 9 5 3 1 358 356 353 350 349 347 346 345 345 345 345 344 343 343 342 342 342 342 341 340 339 339 337 336 338 339 338 337 337 338 337 334 333 332 331 330 330 330 330 329 327 326 326 326 324 319 315 313 312 312 311 311 308 305 301 296 293 291 291 293 293 292 292 292 292 292
6 4 3 5 13 25 38 48 49 45 39 34 28 22 18 14 9 6 3 1 359 356 353 351 349 347 345 344 344 343 343 343 343 342 342 341 341 341 341 341 340 339 338 337 337 337 338 339 338 337 338 338 335 333 333 332 331 330 330 330 329 329 329 328 328 326 323 319 316 316 315 312 308 305 302 297 293 291 293 296 298 298 298 298 297 297 296 295
5 6 8 18 34 44 49 48 42 38 33 26 21 16 11 7 4 1 359 357 355 352 349 347 346 344 343 342 342 342 343 343 342 341 341 341 341 340 340 339 339 338 337 337 338 339 339 339 338 337 339 340 336 334 334 333 331 331 331 330 330 330 330 329 328 325 323 321 318 315 311 305 301 300 298 295 293 294 297 300 301 301 302 302 300 299 298 297
12 15 23 40 49 48 45 40 34 31 26 18 12 8 4 2 359 357 356 353 350 348 346 345 344 343 343 343 342 343 344 343 343 342 341 341 341 340 339 339 339 338 337 338 340 341 340 340 338 336 338 340 337 335 335 334 332 332 332 332 331 331 330 329 328 326 324 322 318 312 305 299 296 297 299 298 298 298 299 300 301 303 304 304 302 302 302 302
22 29 40 48 47 41 36 32 27 23 19 11 5 2 360 358 356 353 352 349 347 346 345 345 344 344 344 343 343 344 344 344 343 343 341 341 341 340 339 339 338 338 338 340 341 342 340 339 338 337 338 340 338 337 338 337 334 334 334 333 332 331 331 331 330 328 324 319 315 309 305 303 304 304 304 304 304 304 305 305 305 307 308 308 308 307 307 308
28 37 42 41 38 32 26 23 19 14 9 3 360 358 355 354 352 350 348 347 346 345 345 344 344 344 343 343 342 343 343 343 343 343 342 340 340 341 339 338 338 339 340 341 343 343 341 339 338 338 338 340 339 338 339 338 336 336 336 334 333 333 332 331 331 327 322 316 311 308 308 309 309 309 308 308 309 312 314 316 319 321 318 315 313 312 311 311
Height
5766 5767 5769 5772 5774 5775 5777 5779 5781 5783 5784 5786 5787 5788 5790 5791 5792 5793 5795 5796 5797 5798 5799 5800 5801 5802 5802 5803 5803 5803 5803 5803 5803 5803 5803 5803 5803 5802 5802 5801 5801 5800 5800 5799 5799 5799 5799 5799 5799 5798 5798 5797 5796 5796 5795 5795 5794 5793 5792 5791 5791 5790 5789 5788 5786 5785 5785 5784 5783 5782 5781 5780 5778 5777 5776 5774 5773 5772 5770 5768 5767 5766 5764 5762 5762 5761 5759 5757
5764 5766 5768 5770 5772 5774 5776 5778 5780 5782 5784 5785 5787 5788 5790 5791 5792 5793 5795 5796 5797 5798 5799 5800 5801 5802 5802 5802 5802 5802 5802 5802 5802 5802 5802 5802 5802 5801 5801 5800 5799 5799 5798 5798 5798 5798 5798 5797 5797 5797 5796 5796 5795 5794 5793 5793 5793 5791 5790 5790 5789 5788 5787 5786 5784 5784 5783 5783 5782 5780 5779 5778 5776 5775 5774 5772 5770 5769 5767 5765 5764 5764 5762 5759 5759 5757 5756 5754
5763 5765 5767 5769 5771 5774 5776 5778 5780 5782 5783 5785 5787 5788 5790 5791 5792 5793 5795 5796 5797 5798 5799 5800 5801 5801 5801 5801 5801 5801 5802 5802 5802 5801 5801 5801 5800 5800 5799 5799 5798 5797 5797 5797 5796 5796 5796 5796 5796 5795 5795 5794 5793 5793 5792 5792 5791 5790 5789 5788 5787 5786 5786 5784 5783 5782 5782 5781 5780 5779 5777 5776 5774 5773 5771 5770 5768 5765 5764 5763 5762 5761 5759 5755 5754 5754 5753 5751
5762 5764 5766 5769 5771 5773 5775 5777 5779 5781 5783 5785 5787 5788 5790 5791 5792 5793 5794 5796 5797 5798 5799 5799 5800 5800 5800 5800 5801 5801 5801 5801 5801 5801 5800 5800 5799 5799 5798 5797 5797 5796 5796 5796 5795 5795 5795 5795 5794 5794 5793 5793 5792 5792 5791 5791 5790 5789 5788 5787 5786 5785 5784 5782 5781 5780 5779 5779 5778 5777 5775 5774 5772 5770 5768 5767 5765 5762 5760 5759 5758 5757 5755 5752 5750 5750 5749 5748
5761 5763 5765 5768 5770 5772 5774 5777 5779 5781 5783 5785 5787 5789 5790 5791 5792 5793 5794 5795 5796 5797 5797 5798 5799 5799 5799 5799 5800 5800 5800 5800 5800 5800 5800 5799 5798 5798 5797 5796 5796 5795 5795 5795 5794 5794 5793 5793 5793 5792 5792 5791 5791 5790 5790 5789 5788 5787 5786 5785 5784 5783 5782 5781 5779 5778 5777 5776 5775 5774 5773 5771 5769 5768 5766 5763 5761 5759 5757 5755 5754 5753 5751 5749 5747 5745 5744 5743
5760 5762 5764 5767 5769 5772 5774 5776 5778 5781 5783 5785 5787 5788 5790 5791 5792 5793 5793 5794 5795 5796 5797 5797 5798 5798 5798 5799 5799 5800 5800 5800 5800 5799 5799 5798 5798 5797 5796 5796 5795 5794 5794 5794 5793 5793 5792 5792 5792 5791 5791 5791 5790 5789 5789 5788 5787 5786 5784 5783 5782 5781 5780 5779 5777 5776 5775 5774 5773 5772 5770 5768 5766 5765 5762 5759 5758 5757 5755 5752 5750 5748 5747 5745 5743 5741 5739 5738
5758 5761 5763 5766 5769 5771 5773 5776 5778 5781 5783 5785 5786 5788 5789 5790 5791 5792 5793 5794 5795 5795 5796 5797 5797 5798 5798 5799 5799 5799 5799 5799 5799 5799 5798 5798 5797 5796 5795 5795 5794 5794 5793 5793 5792 5792 5792 5791 5791 5791 5790 5790 5789 5788 5787 5786 5785 5784 5783 5781 5780 5779 5778 5777 5775 5774 5773 5772 5770 5769 5767 5764 5762 5761 5758 5755 5754 5753 5752 5749 5747 5745 5743 5742 5740 5737 5735 5733
5757 5760 5763 5765 5768 5770 5773 5775 5778 5780 5782 5784 5786 5787 5788 5790 5791 5792 5792 5793 5794 5795 5796 5796 5797 5797 5798 5798 5799 5799 5799 5799 5799 5798 5798 5797 5797 5796 5795 5794 5794 5793 5793 5792 5792 5792 5791 5791 5791 5790 5789 5788 5788 5787 5786 5785 5784 5783 5781 5780 5779 5777 5776 5775 5773 5772 5770 5769 5768 5766 5763 5760 5758 5756 5754 5752 5750 5749 5748 5746 5743 5741 5739 5738 5737 5735 5732 5730
5757 5759 5762 5765 5767 5770 5773 5775 5778 5780 5782 5784 5785 5787 5788 5789 5790 5791 5792 5793 5794 5795 5796 5796 5797 5798 5798 5798 5799 5799 5799 5798 5798 5798 5797 5797 5796 5795 5795 5794 5793 5793 5792 5792 5792 5791 5791 5790 5790 5789 5788 5787 5786 5785 5784 5783 5782 5781 5780 5779 5777 5776 5774 5773 5771 5770 5768 5766 5765 5763 5760 5756 5753 5751 5750 5749 5746 5745 5743 5741 5739 5736 5734 5733 5731 5730 5728 5726
5756 5759 5761 5764 5767 5770 5772 5775 5777 5779 5781 5783 5785 5786 5788 5789 5790 5791 5792 5793 5794 5795 5796 5796 5797 5798 5798 5798 5798 5798 5798 5798 5797 5797 5797 5796 5796 5795 5795 5794 5794 5793 5793 5792 5792 5791 5791 5790 5789 5788 5787 5786 5785 5784 5783 5782 5781 5780 5778 5777 5775 5773 5772 5771 5769 5767 5765 5763 5762 5760 5758 5753 5749 5746 5745 5745 5742 5740 5739 5736 5734 5732 5730 5728 5726 5723 5721 5720
5756 5758 5761 5764 5766 5769 5772 5774 5777 5779 5781 5783 5785 5786 5788 5789 5790 5791 5792 5793 5794 5795 5796 5796 5797 5797 5798 5798 5798 5798 5798 5797 5797 5797 5797 5797 5796 5796 5795 5795 5794 5794 5793 5793 5792 5791 5790 5789 5788 5787 5786 5785 5784 5783 5782 5781 5780 5778 5777 5775 5774 5771 5770 5768 5766 5765 5763 5761 5758 5757 5755 5749 5745 5742 5739 5740 5738 5736 5735 5733 5731 5729 5726 5724 5721 5717 5714 5713
5757 5759 5761 5764 5767 5769 5772 5775 5777 5779 5781 5783 5785 5787 5788 5789 5790 5791 5792 5793 5794 5795 5796 5796 5797 5797 5797 5798 5798 5798 5798 5798 5798 5798 5798 5797 5797 5797 5796 5795 5795 5794 5793 5792 5791 5790 5789 5788 5787 5786 5785 5784 5783 5782 5781 5780 5778 5777 5775 5773 5772 5769 5767 5766 5764 5762 5760 5758 5754 5754 5753 5747 5742 5741 5736 5735 5735 5733 5731 5729 5727 5725 5722 5719 5716 5713 5710 5707
5759 5761 5763 5765 5768 5771 5773 5776 5778 5780 5782 5784 5786 5787 5789 5790 5791 5792 5793 5794 5795 5796 5796 5796 5797 5797 5798 5798 5799 5799 5799 5799 5799 5799 5798 5798 5797 5797 5796 5795 5794 5793 5792 5791 5790 5789 5788 5787 5786 5785 5784 5783 5782 5781 5779 5778 5777 5775 5773 5772 5770 5767 5764 5763 5761 5759 5757 5755 5752 5749 5750 5745 5740 5738 5735 5733 5732 5730 5727 5724 5721 5719 5717 5715 5712 5709 5706 5702
5761 5763 5765 5767 5770 5772 5775 5777 5779 5781 5783 5785 5786 5788 5790 5791 5792 5793 5794 5795 5796 5796 5797 5797 5798 5799 5799 5799 5800 5800 5800 5800 5799 5799 5799 5798 5797 5797 5796 5795 5794 5793 5792 5791 5789 5789 5787 5786 5785 5784 5783 5782 5780 5779 5777 5776 5775 5773 5771 5769 5768 5766 5763 5760 5758 5757 5754 5752 5749 5745 5745 5742 5736 5734 5733 5732 5729 5726 5723 5718 5716 5714 5712 5709 5707 5704 5702 5698
5763 5765 5767 5770 5772 5774 5777 5779 5781 5783 5785 5786 5788 5790 5791 5792 5793 5795 5795 5796 5797 5797 5798 5799 5799 5800 5800 5801 5801 5801 5800 5800 5800 5799 5799 5798 5797 5796 5795 5794 5793 5792 5791 5790 5789 5788 5787 5785 5784 5783 5782 5780 5779 5777 5776 5774 5773 5771 5770 5767 5765 5764 5761 5757 5754 5753 5751 5748 5744 5741 5739 5736 5730 5728 5729 5728 5727 5723 5719 5715 5711 5709 5707 5705 5702 5699 5696 5693
5767 5769 5771 5773 5775 5777 5779 5781 5783 5785 5787 5789 5790 5792 5793 5794 5795 5796 5797 5797 5798 5799 5800 5800 5801 5801 5801 5801 5801 5801 5801 5801 5800 5800 5799 5798 5797 5796 5795 5794 5793 5792 5790 5789 5788 5787 5786 5785 5783 5782 5781 5780 5778 5777 5775 5773 5771 5769 5768 5765 5762 5760 5758 5755 5752 5749 5746 5744 5740 5736 5735 5730 5724 5722 5720 5720 5721 5719 5715 5711 5707 5705 5703 5700 5697 5693 5690 5688
5771 5773 5774 5776 5778 5780 5782 5784 5786 5788 5790 5791 5792 5794 5795 5796 5797 5798 5798 5799 5800 5800 5801 5801 5802 5802 5802 5802 5802 5802 5802 5801 5801 5800 5799 5798 5797 5796 5795 5794 5793 5791 5790 5789 5788 5787 5785 5784 5783 5782 5780 5779 5777 5775 5773 5771 5770 5768 5765 5763 5760 5757 5754 5752 5750 5746 5743 5740 5735 5732 5730 5724 5720 5718 5714 5711 5712 5712 5709 5706 5703 5701 5699 5695 5692 5687 5684 5683
5775 5777 5778 5780 5782 5784 5786 5787 5789 5791 5792 5794 5795 5796 5797 5798 5799 5799 5800 5801 5801 5802 5802 5802 5802 5803 5803 5803 5803 5803 5802 5801 5801 5800 5799 5798 5797 5796 5795 5794 5792 5791 5790 5788 5787 5786 5785 5783 5782 5780 5779 5777 5775 5773 5771 5768 5766 5764 5761 5758 5756 5754 5749 5746 5744 5741 5740 5737 5731 5728 5725 5719 5716 5715 5712 5706 5704 5704 5701 5698 5697 5696 5693 5689 5686 5682 5679 5677
5779 5781 5782 5784 5785 5787 5789 5790 5792 5793 5795 5796 5797 5798 5799 5800 5801 5801 5802 5802 5803 5803 5803 5803 5803 5804 5804 5804 5803 5803 5802 5802 5801 5800 5799 5798 5797 5796 5795 5793 5792 5791 5790 5788 5787 5786 5784 5783 5781 5779 5778 5776 5773 5771 5768 5765 5763 5760 5757 5754 5751 5749 5745 5741 5738 5735 5734 5733 5728 5724 5719 5715 5712 5710 5709 5705 5700 5698 5694 5691 5690 5688 5685 5682 5679 5676 5673 5670
5783 5785 5786 5787 5789 5790 5792 5793 5795 5796 5797 5798 5799 5801 5802 5802 5803 5803 5803 5804 5804 5804 5804 5804 5805 5805 5804 5804 5803 5803 5802 5802 5801 5800 5799 5798 5797 5796 5795 5793 5792 5791 5790 5788 5787 5785 5783 5782 5779 5777 5776 5773 5771 5768 5764 5761 5759 5756 5753 5750 5747 5745 5742 5738 5735 5731 5729 5728 5724 5720 5714 5708 5706 5705 5704 5700 5696 5693 5689 5686 5684 5681 5678 5675 5672 5669 5666 5663
5786 5788 5789 5791 5792 5793 5795 5796 5797 5798 5800 5801 5802 5803 5804 5804 5805 5805 5805 5805 5806 5806 5806 5806 5806 5805 5805 5804 5804 5803 5802 5802 5801 5800 5799 5798 5797 5796 5794 5793 5792 5791 5789 5788 5786 5784 5781 5779 5777 5775 5773 5770 5767 5764 5761 5758 5756 5752 5749 5747 5744 5742 5740 5736 5731 5727 5724 5723 5720 5717 5711 5703 5700 5699 5698 5694 5690 5687 5684 5680 5676 5673 5670 5666 5663 5660 5657 5654
5790 5792 5793 5794 5795 5797 5798 5799 5801 5801 5802 5803 5804 5805 5806 5807 5807 5807 5807 5808 5808 5808 5807 5807 5807 5806 5806 5805 5804 5803 5803 5802 5801 5800 5799 5798 5797 5796 5794 5793 5791 5790 5788 5786 5783 5781 5779 5777 5775 5772 5770 5767 5764 5761 5758 5754 5752 5749 5746 5744 5741 5737 5737 5734 5729 5723 5719 5718 5716 5713 5710 5701 5695 5693 5690 5687 5684 5680 5676 5673 5668 5665 5662 5659 5656 5652 5650 5648
5795 5796 5797 5798 5799 5800 5802 5803 5804 5805 5806 5806 5806 5808 5808 5809 5809 5809 5810 5810 5809 5809 5809 5808 5807 5807 5806 5805 5805 5804 5803 5802 5801 5800 5799 5798 5797 5795 5793 5792 5790 5788 5786 5784 5782 5780 5777 5775 5772 5770 5767 5765 5762 5759 5756 5752 5750 5747 5744 5741 5738 5733 5730 5729 5726 5720 5713 5711 5710 5709 5707 5700 5691 5689 5686 5682 5678 5675 5671 5668 5664 5661 5658 5654 5652 5648 5645 5643
5799 5800 5801 5802 5803 5804 5805 5806 5807 5808 5809 5809 5809 5810 5810 5811 5811 5812 5812 5812 5811 5810 5809 5808 5808 5807 5807 5806 5805 5805 5804 5803 5802 5800 5799 5798 5796 5794 5792 5790 5788 5786 5785 5782 5780 5778 5775 5772 5770 5767 5765 5762 5760 5757 5755 5752 5748 5745 5741 5738 5734 5730 5725 5721 5719 5716 5710 5705 5703 5702 5703 5701 5692 5684 5682 5678 5674 5671 5667 5664 5661 5658 5655 5652 5648 5645 5642 5639
5802 5803 5804 5805 5806 5807 5808 5809 5810 5811 5811 5811 5812 5812 5813 5813 5813 5813 5813 5813 5812 5811 5810 5809 5808 5808 5807 5807 5806 5805 5804 5803 5801 5800 5799 5797 5795 5794 5791 5789 5787 5784 5782 5780 5778 5775 5773 5770 5768 5765 5762 5759 5757 5754 5752 5749 5746 5741 5738 5734 5731 5727 5723 5718 5714 5712 5709 5703 5698 5695 5693 5696 5692 5681 5676 5674 5671 5668 5665 5661 5658 5654 5652 5649 5645 5643 5639 5636
5806 5807 5807 5808 5809 5810 5811 5812 5813 5813 5813 5814 5814 5814 5815 5814 5814 5814 5814 5814 5812 5811 5811 5810 5809 5808 5808 5807 5806 5805 5804 5803 5801 5799 5798 5796 5794 5792 5790 5788 5786 5783 5781 5778 5776 5774 5771 5768 5766 5763 5760 5757 5755 5752 5749 5746 5742 5738 5734 5731 5727 5724 5720 5717 5713 5709 5706 5700 5695 5692 5687 5687 5689 5681 5674 5671 5668 5665 5662 5658 5655 5651 5648 5645 5642 5639 5635 5632
5809 5810 5811 5812 5813 5814 5814 5815 5815 5815 5815 5816 5816 5816 5816 5816 5815 5815 5815 5814 5813 5812 5811 5810 5810 5809 5808 5808 5806 5805 5804 5802 5801 5799 5797 5795 5793 5791 5789 5787 5785 5782 5780 5777 5775 5772 5769 5766 5764 5761 5758 5756 5753 5750 5746 5742 5739 5735 5731 5728 5724 5721 5717 5714 5711 5707 5704 5700 5693 5690 5686 5683 5683 5678 5671 5669 5666 5662 5659 5655 5651 5648 5644 5641 5637 5634 5631 5627
5813 5814 5815 5815 5816 5816 5817 5817 5817 5817 5817 5818 5818 5818 5818 5817 5817 5816 5816 5815 5814 5813 5812 5811 5810 5809 5809 5808 5807 5805 5803 5801 5800 5798 5797 5794 5792 5790 5788 5785 5783 5781 5778 5776 5773 5770 5768 5765 5763 5760 5757 5753 5749 5746 5742 5739 5736 5732 5729 5725 5722 5719 5715 5711 5708 5704 5701 5698 5692 5686 5683 5679 5678 5675 5667 5664 5662 5660 5657 5652 5647 5644 5640 5636 5632 5629 5625 5621
5817 5817 5818 5818 5819 5819 5819 5819 5819 5819 5819 5819 5820 5819 5819 5819 5817 5817 5816 5815 5814 5813 5812 5811 5810 5810 5809 5808 5806 5805 5803 5801 5799 5797 5795 5792 5791 5788 5785 5782 5780 5778 5776 5773 5771 5769 5767 5764 5761 5758 5755 5751 5746 5742 5740 5736 5733 5730 5726 5723 5718 5714 5712 5708 5704 5701 5697 5695 5689 5683 5679 5674 5672 5670 5664 5658 5655 5653 5651 5648 5643 5639 5635 5631 5627 5623 5619 5615
5820 5820 5821 5821 5821 5821 5821 5821 5821 5821 5821 5821 5821 5820 5820 5820 5818 5817 5816 5815 5814 5814 5812 5811 5811 5810 5808 5807 5806 5804 5802 5800 5798 5796 5793 5791 5789 5786 5784 5782 5779 5776 5773 5771 5770 5768 5765 5762 5759 5756 5753 5749 5744 5739 5735 5732 5729 5726 5722 5720 5716 5712 5709 5705 5701 5697 5693 5691 5687 5680 5675 5669 5665 5664 5659 5653 5648 5645 5642 5640 5637 5633 5629 5624 5620 5616 5612 5608
5822 5823 5823 5823 5823 5823 5823 5823 5823 5823 5822 5822 5821 5821 5821 5820 5819 5818 5816 5815 5815 5814 5813 5812 5811 5810 5808 5807 5805 5803 5801 5800 5798 5795 5794 5791 5789 5788 5786 5784 5782 5778 5775 5771 5768 5765 5762 5759 5756 5753 5749 5746 5742 5737 5732 5727 5724 5721 5716 5713 5710 5707 5704 5701 5696 5692 5687 5685 5682 5676 5671 5667 5662 5659 5655 5648 5643 5639 5635 5632 5630 5625 5621 5617 5612 5607 5604 5600
5825 5825 5825 5825 5825 5825 5825 5825 5824 5823 5822 5822 5821 5821 5821 5821 5820 5819 5817 5816 5815 5814 5813 5812 5811 5810 5808 5806 5804 5802 5801 5799 5797 5795 5793 5791 5789 5787 5785 5782 5779 5776 5773 5769 5765 5762 5759 5756 5753 5750 5746 5742 5739 5735 5730 5725 5720 5716 5712 5707 5702 5698 5695 5692 5689 5684 5681 5679 5677 5672 5666 5663 5660 5656 5651 5644 5638 5633 5628 5624 5619 5614 5610 5607 5602 5598 5595 5593
5827 5827 5827 5827 5826 5826 5826 5825 5825 5824 5822 5822 5823 5822 5822 5823 5821 5819 5818 5817 5816 5815 5814 5812 5811 5809 5807 5805 5803 5801 5799 5797 5795 5793 5790 5788 5785 5783 5781 5778 5775 5772 5768 5765 5762 5759 5757 5754 5749 5745 5742 5738 5733 5729 5725 5720 5715 5710 5705 5700 5695 5689 5684 5682 5679 5675 5673 5672 5672 5669 5662 5657 5656 5652 5647 5640 5632 5625 5621 5615 5608 5603 5599 5596 5592 5589 5587 5585
5829 5829 5829 5828 5827 5827 5827 5826 5825 5824 5823 5823 5823 5823 5824 5824 5822 5820 5819 5817 5816 5815 5813 5811 5810 5808 5806 5804 5802 5800 5798 5796 5793 5791 5789 5787 5785 5782 5779 5776 5773 5770 5767 5764 5761 5757 5753 5750 5746 5742 5737 5733 5728 5723 5718 5714 5710 5705 5700 5695 5691 5686 5680 5676 5673 5668 5665 5663 5664 5664 5658 5653 5651 5647 5640 5633 5625 5619 5615 5608 5602 5597 5593 5589 5585 5582 5579 5576
5830 5830 5830 5829 5829 5828 5828 5827 5826 5826 5825 5824 5823 5825 5826 5824 5822 5820 5819 5817 5815 5814 5812 5810 5808 5806 5804 5803 5801 5798 5797 5794 5792 5790 5788 5786 5784 5781 5777 5774 5772 5769 5765 5762 5758 5754 5750 5746 5742 5738 5735 5730 5724 5719 5714 5710 5706 5702 5698 5693 5689 5684 5678 5674 5670 5665 5660 5656 5655 5656 5653 5649 5646 5640 5632 5627 5622 5616 5610 5604 5599 5595 5590 5586 5581 5577 5573 5569
5832 5832 5831 5831 5831 5829 5829 5828 5827 5828 5827 5823 5824 5827 5826 5824 5822 5820 5818 5816 5815 5813 5811 5809 5807 5805 5804 5801 5799 5797 5795 5793 5791 5789 5786 5784 5781 5778 5775 5772 5769 5766 5763 5759 5755 5751 5748 5744 5740 5735 5732 5727 5721 5716 5710 5706 5703 5699 5695 5690 5686 5682 5676 5669 5665 5661 5656 5650 5647 5647 5643 5639 5637 5632 5625 5623 5619 5612 5605 5600 5596 5591 5585 5581 5576 5571 5567 5563
5833 5833 5833 5832 5831 5831 5830 5829 5828 5829 5826 5823 5826 5828 5826 5823 5822 5820 5817 5816 5814 5812 5810 5808 5807 5805 5803 5800 5799 5797 5795 5792 5790 5788 5785 5782 5780 5777 5774 5771 5767 5764 5760 5757 5753 5749 5745 5742 5739 5733 5729 5725 5719 5714 5708 5703 5699 5695 5691 5687 5681 5677 5672 5664 5657 5652 5649 5643 5639 5640 5636 5626 5622 5619 5614 5614 5612 5606 5600 5594 5588 5583 5578 5573 5568 5564 5560 5556
5835 5835 5834 5833 5833 5832 5831 5830 5829 5828 5824 5824 5828 5827 5824 5823 5821 5818 5817 5815 5813 5811 5810 5808 5806 5804 5802 5800 5798 5796 5794 5792 5789 5787 5784 5781 5778 5775 5771 5768 5765 5761 5757 5754 5750 5747 5742 5739 5736 5731 5726 5722 5716 5711 5707 5702 5697 5692 5687 5682 5676 5670 5666 5661 5653 5645 5639 5633 5628 5631 5631 5621 5613 5608 5601 5599 5598 5594 5590 5585 5578 5574 5569 5564 5560 5555 5552 5548
5836 5836 5836 5835 5834 5833 5833 5831 5827 5824 5823 5827 5829 5826 5824 5822 5819 5817 5816 5814 5812 5811 5809 5808 5805 5803 5802 5799 5797 5795 5793 5790 5788 5785 5782 5779 5776 5773 5769 5766 5762 5758 5754 5750 5747 5744 5739 5734 5732 5729 5724 5719 5714 5708 5703 5699 5694 5690 5684 5679 5672 5666 5661 5657 5653 5643 5634 5626 5617 5617 5619 5614 5607 5601 5594 5588 5584 5580 5577 5574 5568 5564 5559 5555 5550 5545 5542 5538
5837 5838 5838 5836 5835 5835 5834 5828 5823 5824 5828 5829 5828 5825 5823 5820 5818 5817 5815 5813 5812 5810 5809 5807 5805 5803 5801 5799 5796 5794 5791 5789 5786 5783 5780 5777 5774 5771 5767 5763 5759 5755 5751 5748 5744 5741 5737 5731 5728 5727 5723 5718 5710 5703 5697 5693 5689 5685 5681 5675 5669 5663 5657 5652 5650 5645 5634 5622 5613 5607 5605 5603 5598 5593 5588 5582 5576 5570 5565 5562 5558 5554 5549 5546 5541 5536 5532 5527
5838 5839 5839 5837 5836 5835 5832 5826 5826 5829 5831 5828 5825 5823 5821 5819 5817 5816 5815 5813 5812 5810 5808 5806 5804 5802 5800 5798 5796 5793 5790 5787 5784 5781 5778 5775 5772 5768 5764 5760 5757 5753 5749 5745 5741 5737 5733 5728 5723 5722 5720 5715 5709 5702 5696 5692 5687 5682 5677 5672 5665 5659 5651 5643 5640 5639 5633 5622 5612 5603 5596 5593 5590 5585 5580 5574 5568 5562 5557 5552 5548 5544 5539 5535 5531 5527 5522 5517
5839 5840 5839 5837 5836 5835 5831 5828 5830 5831 5828 5826 5824 5822 5820 5819 5818 5816 5815 5813 5812 5810 5808 5806 5804 5802 5799 5797 5794 5791 5789 5785 5782 5779 5776 5772 5769 5765 5762 5758 5754 5750 5745 5742 5738 5733 5729 5725 5720 5717 5716 5712 5705 5699 5694 5689 5686 5681 5675 5669 5662 5654 5647 5637 5628 5625 5623 5619 5611 5601 5591 5586 5583 5577 5571 5565 5561 5556 5550 5544 5539 5534 5530 5524 5520 5517 5513 5509
5840 5841 5839 5837 5837 5835 5831 5830 5830 5829 5827 5825 5823 5821 5820 5819 5818 5816 5815 5813 5811 5809 5808 5805 5803 5801 5798 5796 5793 5790 5787 5784 5780 5777 5774 5770 5767 5762 5759 5755 5751 5747 5742 5738 5734 5729 5724 5720 5715 5712 5713 5712 5706 5699 5693 5688 5682 5676 5670 5662 5653 5646 5641 5634 5626 5618 5611 5609 5604 5593 5583 5580 5576 5569 5563 5557 5553 5549 5544 5538 5531 5525 5520 5515 5509 5505 5502 5498
5841 5840 5839 5838 5837 5834 5831 5830 5829 5828 5826 5825 5823 5822 5821 5819 5818 5816 5814 5813 5811 5809 5807 5805 5802 5800 5797 5794 5791 5788 5785 5782 5778 5775 5771 5768 5764 5760 5756 5752 5748 5743 5739 5735 5731 5726 5721 5715 5708 5702 5699 5699 5696 5690 5685 5682 5678 5672 5666 5660 5651 5642 5635 5629 5624 5615 5605 5602 5598 5584 5574 5572 5569 5562 5556 5549 5545 5541 5538 5533 5525 5517 5510 5503 5497 5493 5489 5485
5841 5840 5839 5837 5835 5832 5831 5830 5829 5827 5826 5824 5823 5822 5821 5819 5818 5816 5814 5812 5810 5808 5806 5804 5801 5798 5795 5792 5789 5786 5783 5779 5776 5772 5769 5765 5761 5757 5752 5748 5745 5740 5736 5733 5728 5724 5720 5713 5705 5697 5689 5685 5680 5675 5670 5667 5667 5664 5662 5659 5652 5642 5633 5624 5618 5610 5599 5593 5589 5576 5564 5560 5557 5552 5546 5540 5534 5529 5527 5523 5517 5510 5501 5493 5486 5480 5476 5472
5841 5840 5838 5836 5834 5832 5831 5830 5828 5827 5826 5824 5823 5822 5821 5819 5818 5816 5814 5812 5810 5807 5805 5802 5799 5796 5793 5790 5787 5784 5781 5777 5774 5770 5766 5762 5758 5754 5750 5745 5741 5737 5733 5730 5726 5722 5718 5713 5706 5698 5691 5686 5680 5673 5667 5660 5656 5653 5651 5649 5645 5638 5630 5619 5610 5603 5592 5582 5576 5568 5556 5546 5542 5538 5533 5527 5522 5517 5513 5509 5504 5498 5490 5483 5476 5470 5465 5461
5840 5839 5837 5835 5834 5832 5831 5830 5828 5827 5826 5824 5824 5822 5821 5819 5817 5815 5813 5811 5809 5806 5803 5801 5798 5795 5792 5789 5786 5782 5779 5775 5771 5767 5763 5760 5756 5751 5747 5742 5738 5734 5730 5726 5723 5719 5715 5711 5705 5699 5693 5687 5679 5672 5666 5659 5651 5645 5640 5637 5633 5628 5622 5613 5603 5594 5584 5573 5564 5558 5549 5538 5530 5525 5520 5513 5507 5503 5499 5495 5490 5484 5477 5469 5462 5455 5451 5449
5840 5838 5836 5835 5833 5831 5830 5830 5829 5828 5826 5825 5824 5822 5820 5819 5817 5814 5812 5810 5808 5805 5802 5800 5797 5794 5791 5788 5784 5781 5778 5774 5770 5766 5762 5758 5754 5750 5745 5741 5736 5732 5728 5724 5720 5716 5711 5707 5703 5698 5693 5687 5677 5669 5662 5655 5647 5640 5633 5627 5622 5616 5609 5601 5592 5582 5574 5564 5554 5545 5538 5529 5520 5514 5509 5502 5495 5490 5487 5483 5477 5470 5462 5454 5446 5440 5436 5434
5840 5837 5836 5834 5833 5832 5831 5830 5829 5828 5826 5825 5824 5822 5820 5818 5816 5814 5812 5809 5806 5804 5801 5798 5795 5792 5788 5785 5782 5778 5775 5771 5768 5763 5759 5755 5751 5747 5743 5738 5734 5729 5725 5721 5716 5711 5707 5703 5698 5693 5691 5686 5677 5667 5659 5650 5642 5634 5626 5619 5612 5606 5598 5589 5580 5570 5561 5553 5544 5535 5529 5523 5514 5505 5499 5493 5486 5480 5477 5472 5465 5458 5450 5442 5434 5428 5425 5422
5839 5837 5836 5834 5833 5832 5832 5831 5829 5828 5826 5825 5824 5822 5820 5818 5815 5813 5811 5808 5805 5802 5799 5796 5793 5789 5786 5782 5779 5774 5770 5766 5762 5758 5754 5750 5746 5742 5738 5735 5730 5726 5722 5716 5711 5706 5701 5697 5693 5687 5684 5682 5675 5666 5659 5649 5637 5627 5619 5611 5603 5596 5589 5580 5568 5556 5547 5540 5534 5527 5519 5514 5509 5502 5494 5488 5480 5473 5468 5462 5456 5449 5441 5433 5426 5421 5417 5413
5839 5837 5836 5834 5833 5833 5832 5831 5829 5828 5826 5825 5823 5822 5819 5817 5815 5812 5809 5807 5804 5801 5797 5794 5791 5787 5783 5779 5775 5772 5768 5763 5759 5754 5749 5745 5742 5738 5734 5730 5727 5723 5718 5713 5707 5701 5695 5690 5686 5680 5675 5672 5667 5659 5653 5646 5635 5625 5614 5604 5595 5585 5575 5565 5554 5543 5535 5527 5521 5516 5509 5502 5497 5491 5484 5477 5469 5462 5455 5450 5444 5438 5432 5426 5419 5414 5409 5404
5839 5837 5836 5835 5834 5833 5832 5831 5829 5828 5827 5825 5823 5821 5819 5816 5814 5811 5808 5805 5802 5799 5796 5792 5789 5785 5782 5778 5774 5770 5766 5761 5757 5753 5747 5742 5739 5735 5731 5726 5722 5718 5714 5709 5703 5697 5690 5683 5677 5671 5665 5662 5656 5649 5643 5635 5626 5617 5606 5594 5582 5571 5561 5553 5546 5537 5529 5521 5513 5506 5500 5492 5484 5477 5468 5460 5454 5448 5442 5438 5433 5427 5422 5418 5413 5407 5401 5396